GFSSGP_con_sbcape_198.txt.gz
CAPE
0 0 0 0 0 0 0 0 0 0 0 0 0 0 0 22 169 608 904 1100 1292 1325 1627 991 1621 1946 2050 2000 1821 1668 1496 1269 1168 1051 1401 1523 1644 1774 1726 1422 982 445 234 408 397 59 0 0 0
0 0 0 0 0 0 0 0 0 0 0 0 0 0 0 0 5 205 991 1394 1355 1646 1413 486 1526 1823 1989 1980 1831 1722 1535 1282 1126 1266 1531 1581 1637 1641 1289 1045 762 460 501 447 124 0 0 0 0
0 0 0 0 0 0 0 0 0 0 0 0 0 0 0 0 130 1146 1109 1330 1749 1620 924 153 1487 1611 1898 1947 1844 1717 1592 1457 1449 1481 1489 1395 1275 1163 1026 967 996 724 524 290 50 0 0 0 0
0 0 0 0 0 0 0 0 0 0 0 0 0 0 0 0 0 0 804 1539 1958 1566 788 1040 1504 1540 1734 1822 1781 1737 1746 1583 1561 1525 1418 1309 1169 1016 1001 1130 1183 858 428 190 6 0 0 0 0
0 0 0 0 0 0 0 0 0 0 0 0 0 0 0 0 0 0 0 1245 1850 1619 868 856 1454 1501 1662 1762 1733 1739 1675 1622 1622 1607 1468 1305 1169 1062 1141 1144 897 654 420 101 0 0 0 0 0
0 0 0 0 0 0 0 0 0 0 0 0 0 0 0 0 0 0 0 67 1506 1740 1006 684 1315 1416 1500 1622 1604 1533 1492 1495 1511 1439 1318 1217 1099 1110 1164 1086 881 629 390 37 0 0 0 0 0
0 0 0 0 0 0 0 0 0 0 0 0 0 0 0 0 0 0 0 261 1274 1793 1119 779 421 1023 1498 1481 1425 1402 1315 1288 1232 1100 1062 1117 1093 1111 1133 1081 789 651 196 17 0 0 0 0 14
0 0 0 0 0 0 0 0 0 0 0 0 0 0 0 0 0 0 0 223 1291 2045 1405 943 314 91 197 629 1433 1326 1248 1213 1099 1090 1126 1122 1105 992 887 1005 816 348 70 6 0 0 0 48 284
0 0 0 0 0 0 0 0 0 0 0 0 0 0 0 0 0 0 0 55 991 1715 1784 1341 327 57 1 10 556 1134 1000 1175 1150 967 1085 553 0 105 349 221 347 116 56 18 0 0 24 179 322
0 0 0 0 0 0 0 0 0 0 0 0 0 0 0 0 0 0 0 0 358 1523 1777 1484 570 181 24 1 184 35 91 156 98 89 214 0 0 57 49 112 74 71 44 30 15 16 103 146 661
0 0 0 0 0 0 0 0 0 0 0 0 0 0 0 0 0 0 0 0 0 965 1742 1425 1014 406 102 40 162 5 5 12 79 124 324 40 81 303 67 10 0 0 1 0 0 49 130 533 1007
0 0 0 0 0 0 0 0 0 0 0 0 0 0 0 0 0 0 0 0 0 202 1843 1597 1093 703 272 156 206 20 11 25 56 207 547 209 205 267 0 0 0 0 0 64 152 145 517 1185 1224
0 0 0 0 0 0 0 0 0 0 0 0 0 0 0 0 0 0 0 0 0 22 1112 1509 1333 1417 662 422 333 125 210 114 142 348 595 146 79 178 46 0 0 0 2 150 339 331 1051 945 260
0 0 0 0 0 0 0 0 0 0 0 0 0 0 0 0 0 0 0 0 0 0 603 1677 1294 1527 1001 697 684 369 216 312 148 188 342 114 88 166 0 0 0 8 126 254 441 535 883 450 212
0 0 0 0 0 0 0 0 0 0 0 0 0 0 0 0 0 0 0 0 0 0 366 1128 1933 1876 1687 888 752 571 285 130 125 127 268 88 143 227 0 0 57 213 481 1032 1028 940 406 296 80
0 0 0 0 0 0 0 0 0 0 0 0 0 0 0 0 0 0 0 0 0 0 153 1055 1437 1952 2009 1175 1009 575 374 170 53 55 218 122 139 49 0 2 179 306 782 642 454 453 329 187 52
0 0 0 0 0 0 0 0 0 0 0 0 0 0 0 0 0 0 0 0 0 0 3 794 1775 1819 1716 1821 1231 792 825 286 55 33 73 143 49 2 17 56 344 1107 478 297 251 256 277 216 170
0 0 0 0 0 0 0 0 0 0 0 0 0 0 0 0 0 0 0 0 0 0 410 989 1994 2340 2108 1747 1560 788 505 285 107 38 3 113 10 0 35 221 700 919 418 319 258 363 162 162 76
0 0 0 0 0 0 1 2 11 26 5 3 3 0 0 0 0 0 0 0 0 86 1070 1888 2049 2495 1961 1285 1336 1042 693 425 238 98 15 86 15 0 230 409 1053 926 469 429 613 415 322 90 0
0 0 0 0 0 2 5 18 59 61 13 3 0 0 0 0 0 0 0 0 0 0 1237 2048 2352 2433 1923 1503 2011 1158 818 499 367 182 119 78 3 13 129 764 1155 1009 511 729 499 404 255 24 0
0 1 0 0 0 22 37 16 60 0 0 0 0 0 0 0 0 0 0 0 0 0 635 1911 2217 2599 2294 2214 2076 1524 1273 664 376 319 311 116 23 201 359 1188 1082 1016 668 646 701 537 254 224 0
0 0 0 0 10 85 2 7 1 5 1 0 3 18 9 0 0 0 0 0 0 0 321 1611 2221 2407 2379 2520 1804 1884 999 627 510 575 413 242 131 128 642 1414 1059 965 590 636 391 67 40 13 0
0 0 0 12 115 22 25 21 20 36 26 10 3 124 213 117 4 0 0 0 0 0 244 1336 2226 2488 2516 1974 2067 1325 1126 614 617 402 1222 873 808 402 725 1013 836 641 400 163 0 0 0 0 0
0 11 16 54 26 140 56 51 24 53 21 10 59 206 248 219 142 21 0 0 0 0 142 944 1898 2418 1939 1850 2051 1547 1841 1212 636 709 563 447 623 847 699 622 493 265 34 0 0 0 0 0 0
11 42 12 102 231 208 3 10 31 35 49 22 3 212 350 402 161 23 0 0 0 0 158 1138 1891 1892 1767 1626 1689 1284 1883 2191 2020 1352 722 485 492 817 780 433 119 5 0 0 0 0 0 0 0
16 25 40 31 84 22 9 49 47 8 17 116 264 441 493 509 63 6 0 0 0 0 407 1354 1529 1583 1523 1516 1480 1474 1185 905 763 947 246 178 567 848 486 121 3 0 0 0 0 0 0 0 0
25 78 27 8 16 56 63 14 0 38 76 169 346 457 672 900 288 36 2 0 0 87 808 1457 1545 1668 1257 1311 1609 1679 1601 1489 673 1011 1761 983 1358 451 108 3 0 0 0 0 0 0 0 0 0
22 48 34 19 115 111 26 38 6 2 27 107 174 281 592 924 628 190 0 0 36 398 1089 1737 1660 1663 1201 1329 1616 1663 1706 1145 1482 1258 1382 860 367 107 5 3 0 0 0 0 0 0 0 0 0
40 32 52 35 34 72 116 32 0 37 38 101 121 147 408 1224 1020 208 17 0 211 776 1268 1743 1587 1634 1027 1369 1650 1576 1575 1477 926 242 251 159 64 16 6 2 0 0 0 0 1 0 0 0 0
37 33 81 65 82 141 78 50 81 23 17 52 42 11 419 1567 1068 388 61 114 715 1523 1580 2039 1587 1278 1264 1590 1444 1549 1771 727 122 11 10 11 16 6 2 2 0 0 0 0 1 0 0 0 0

GFSSGP_con_sbcape_201.txt.gz
CAPE
0 0 0 0 0 0 0 0 0 0 0 0 0 0 0 0 103 866 1554 998 1105 1427 2344 991 1957 2096 2232 2065 1897 1715 1244 1191 1350 1173 1119 1479 1663 1816 1871 1698 1471 685 214 297 302 36 0 0 0
0 0 0 0 0 0 0 0 0 0 0 0 0 0 0 0 17 1202 1632 947 687 1469 2539 974 1902 2127 2228 2080 1783 1506 1274 1315 1354 1173 1406 1582 1689 1821 1555 1423 1140 680 522 436 91 0 0 0 0
0 0 0 0 0 0 0 0 0 0 0 0 0 0 0 12 507 284 677 838 1179 1835 2331 1370 1860 2117 2192 2089 1819 1649 1439 1380 1270 1481 1570 1635 1726 1738 1427 1182 1070 846 605 233 0 0 0 0 0
0 0 0 0 0 0 0 0 0 0 0 0 0 0 0 0 0 0 48 1126 1479 1917 1992 1330 1831 2059 2159 2099 1929 1634 1481 1297 1329 1651 1680 1643 1575 1373 1166 1157 1216 1077 423 113 0 0 0 0 0
0 0 0 0 0 0 0 0 0 0 0 0 0 0 0 0 0 0 0 519 1569 1814 1531 1373 1723 1984 2104 2177 1950 1722 1535 1474 1477 1590 1543 1392 1260 1088 1121 1317 1278 887 366 47 0 0 0 0 0
0 0 0 0 0 0 0 0 0 0 0 0 0 0 0 0 0 0 0 0 826 1727 1571 1416 1493 1776 1906 2007 1955 1767 1589 1530 1452 1527 1451 1333 1156 1102 1238 1244 1141 833 327 18 0 0 0 0 0
0 0 0 0 0 0 0 0 0 0 0 0 0 0 0 0 0 0 0 0 474 1653 1696 1421 930 1284 1767 1793 1757 1702 1589 1533 1553 1449 1320 1243 1134 1176 1204 1191 1031 543 140 1 0 0 0 0 9
0 0 0 0 0 0 0 0 0 0 0 0 0 0 0 0 0 0 0 0 350 1774 1518 1349 402 258 665 1322 1659 1646 1578 1528 1415 1316 1262 1164 1081 988 989 1094 934 366 27 0 0 0 0 7 202
0 0 0 0 0 0 0 0 0 0 0 0 0 0 0 0 0 0 0 0 39 1863 1601 1213 766 50 16 84 1166 1378 1244 1347 1240 1105 1217 621 0 24 250 303 750 122 21 0 0 0 10 117 293
0 0 0 0 0 0 0 0 0 0 0 0 0 0 0 0 0 0 0 0 0 780 1878 1285 1238 333 2 1 676 640 585 544 255 125 351 0 0 13 0 179 298 63 21 0 0 21 77 98 324
0 0 0 0 0 0 0 0 0 0 0 0 0 0 0 0 0 0 0 0 0 30 1366 1794 1773 1291 92 4 306 75 136 29 76 71 374 72 0 0 27 127 1 0 22 0 0 0 17 134 481
0 0 0 0 0 0 0 0 0 0 0 0 0 0 0 0 0 0 0 0 0 0 766 1861 1507 1668 957 85 206 23 61 55 106 39 926 325 79 431 54 0 0 0 0 0 18 0 94 743 818
0 0 0 0 0 0 0 0 0 0 0 0 0 0 0 0 0 0 0 0 0 0 0 1406 1618 1521 1543 2060 365 82 109 78 109 255 688 108 76 939 76 5 0 0 0 8 52 81 397 1099 540
0 0 0 0 0 0 0 0 0 0 0 0 0 0 0 0 0 0 0 0 0 0 0 887 2181 1605 1603 1277 1565 855 495 84 114 355 635 755 276 1106 42 10 0 0 0 0 74 314 691 755 377
0 0 0 0 0 0 0 0 0 0 0 0 0 0 0 0 0 0 0 0 0 0 0 141 2281 1425 1397 1689 1603 1104 346 200 175 387 1507 1116 951 1368 501 0 0 0 94 131 653 1122 1079 620 428
0 0 0 4 0 0 0 0 0 0 0 0 0 0 0 0 0 0 0 0 0 0 0 390 1969 2077 1527 1836 1738 1185 586 356 251 153 857 983 713 1236 715 0 1 63 547 766 664 539 246 236 154
1 1 0 0 0 0 0 0 0 0 0 0 0 0 0 0 0 0 0 0 0 0 0 0 1188 1907 2248 2306 1870 1618 1675 545 289 145 286 1065 369 343 211 0 190 1595 462 507 479 304 236 324 504
0 0 0 0 0 0 0 0 1 14 28 25 0 2 0 0 0 0 0 0 0 0 0 102 833 2138 2990 2669 2480 1655 1269 757 362 160 246 1087 348 187 376 44 1154 1214 435 352 319 403 369 488 409
0 0 0 0 0 0 18 31 70 75 52 70 74 65 46 44 13 2 0 0 0 0 0 743 722 2447 2671 2741 2444 2016 1547 1107 602 252 661 924 277 289 402 64 1432 1388 666 687 922 772 792 354 122
0 0 0 0 1 8 42 125 171 130 75 46 44 24 17 5 0 2 76 22 98 0 8 527 1927 2789 2909 2514 2463 2437 1672 1405 726 457 592 800 356 548 392 1243 1695 1538 478 992 1073 875 376 241 40
0 0 1 0 0 110 153 146 132 122 89 14 0 0 0 7 11 2 1 174 166 101 78 103 2353 2468 3045 2931 2682 2577 1711 1297 1016 777 303 680 423 357 753 1174 1554 2104 1454 1093 1170 1082 807 198 104
0 0 0 3 71 194 243 322 292 215 160 96 41 54 42 98 118 134 3 13 240 58 176 48 1958 2502 2838 3143 2596 2424 1727 1092 1127 764 674 628 658 406 232 1097 1627 1877 733 2144 1139 844 521 786 690
0 0 0 27 151 292 410 488 317 182 216 94 130 67 97 98 135 123 155 32 26 22 116 272 1607 2453 2750 2677 2981 2867 1693 1514 1487 975 1870 1092 1168 843 158 1802 1524 1565 961 1196 889 399 219 123 67
0 9 28 32 218 560 262 133 85 62 6 13 46 135 221 141 79 86 104 127 78 10 10 275 1553 2503 2904 2572 2692 2891 1968 1722 1247 1420 1529 893 534 459 1448 1321 2075 1554 1048 501 205 55 0 36 0
32 104 125 175 237 231 80 144 2 12 1 13 29 26 110 273 246 79 254 83 163 27 1 34 1623 2060 2425 2347 2457 2548 2376 2635 2498 2005 1485 1255 693 529 1845 2087 1781 796 729 60 0 0 0 0 0
44 110 124 52 58 14 31 237 296 0 17 13 6 1 127 350 261 101 82 1 90 34 11 6 832 1748 2008 2166 2350 2644 2799 1537 1361 1996 1596 1144 1085 1328 2011 1602 1074 153 1 0 0 0 0 1 0
75 118 45 97 17 57 175 21 322 128 20 9 0 5 70 156 411 533 79 48 106 65 260 214 714 999 1629 2104 2262 2334 2487 2236 1675 2114 2658 1388 1595 1765 1498 811 109 4 0 0 0 0 0 0 0
85 45 128 149 36 54 36 69 324 53 29 29 12 16 63 123 302 0 243 36 133 90 218 488 1067 1176 1707 1890 2151 2286 2044 1882 2371 2594 2192 1638 2000 1446 333 73 12 4 2 1 1 0 0 0 0
47 101 111 112 60 95 131 42 11 65 21 15 5 15 29 160 410 99 287 24 65 30 41 1781 1697 1358 2106 1437 1881 2051 1695 1502 2004 2017 1981 2100 1232 114 3 12 9 2 1 0 0 0 0 0 0
37 53 77 93 152 97 159 2 100 17 2 29 19 10 11 96 573 748 84 8 2 78 542 1554 2079 1716 1843 1297 1627 1747 2101 1552 1538 1129 1120 35 26 0 3 3 4 4 0 0 0 0 0 0 0

GFSSGP_con_sbcape_207.txt.gz
CAPE
0 0 0 0 0 0 0 0 0 0 0 0 0 19 1385 1544 1319 1004 775 1842 1808 1677 1838 1892 2355 2366 1934 1656 1510 1400 1298 1277 1104 1052 1241 1439 1612 1681 1646 1161 971 1049 637 348 166 1 0 0 0
0 0 0 0 0 0 0 0 0 0 0 0 0 0 211 125 548 1183 1049 1877 1482 1611 1422 1688 2288 2368 2028 1633 1484 1378 1340 1354 1180 1104 1308 1415 1595 1725 1499 1176 869 890 374 233 48 0 0 0 0
0 0 0 0 0 0 0 0 0 0 0 0 0 0 33 0 0 542 773 1879 1568 1308 1421 1844 2316 2354 2067 1836 1587 1327 1383 1390 1249 1196 1352 1492 1595 1584 1560 1188 904 895 329 154 0 0 0 0 0
0 0 0 0 0 0 0 0 0 0 0 0 0 0 0 1 0 31 676 2366 2009 1185 1598 2140 2296 2322 2232 2086 1615 1369 1389 1424 1278 1389 1440 1546 1622 1493 1261 1167 1036 930 535 72 0 0 0 0 0
0 0 0 0 0 0 0 0 0 0 0 0 0 0 0 0 0 0 171 1187 2195 1425 1505 1801 2241 2356 2322 2122 1713 1435 1473 1424 1303 1434 1507 1627 1596 1367 1132 1133 1152 965 711 271 14 0 0 0 0
0 0 0 0 0 0 0 0 0 0 0 0 0 0 0 0 0 0 0 2 1967 1612 1503 1512 2163 2241 2200 2044 1780 1498 1479 1370 1375 1451 1517 1617 1515 1241 1162 1312 1247 988 613 187 4 0 0 0 0
0 0 0 0 0 0 0 0 0 0 0 0 0 0 0 0 0 0 0 0 1353 1670 1446 1506 1665 2079 2172 1966 1725 1547 1383 1310 1408 1427 1478 1508 1310 1156 1189 1331 1212 980 548 151 11 0 0 0 0
0 0 0 0 0 0 0 0 0 0 0 0 0 0 0 0 0 0 0 0 168 1552 1359 1234 1513 1722 1682 1517 1518 1579 1386 1369 1462 1506 1416 1246 1147 1092 1227 1053 1115 984 629 227 31 0 0 0 0
0 0 0 0 0 0 0 0 0 0 0 0 0 0 0 0 0 0 0 0 0 1424 1249 1007 1152 1219 1274 1100 1225 1502 1457 1488 1498 1451 1345 859 548 730 905 815 1080 988 636 262 60 1 0 0 2
0 0 0 0 0 0 0 0 0 0 0 0 0 0 0 0 0 0 0 0 0 1022 1595 1272 836 727 662 1292 1271 1012 1125 1131 979 945 937 412 206 242 460 512 997 993 596 249 88 16 1 24 0
0 0 0 0 0 0 0 0 0 0 0 0 0 0 0 0 0 0 0 0 0 0 918 916 502 380 221 624 1118 1012 1040 904 634 605 623 167 34 109 235 61 536 235 248 0 5 0 0 0 0
0 0 0 0 0 0 0 0 0 0 0 0 0 0 0 0 0 0 0 0 0 0 0 771 223 189 136 116 888 815 884 754 541 335 378 95 0 8 3 159 55 13 0 0 0 0 0 0 0
0 0 0 0 0 0 0 0 0 0 0 0 0 0 0 0 0 0 0 0 0 0 0 0 1196 133 101 46 773 680 716 613 406 166 301 29 4 9 38 83 12 0 0 0 0 0 0 0 64
0 0 0 0 0 0 0 0 0 0 0 0 0 0 0 0 0 0 0 0 0 0 0 0 1212 980 354 184 664 551 515 490 198 111 280 69 0 37 11 134 97 0 0 0 0 0 3 125 236
0 0 0 0 0 0 0 0 0 0 0 0 0 0 0 0 0 0 0 0 0 0 0 0 1296 1490 632 363 425 155 174 219 130 60 122 114 2 168 95 70 34 0 0 0 0 679 573 379 224
0 0 0 0 0 0 0 0 0 0 0 0 0 0 0 0 0 0 0 0 0 0 0 0 175 1478 1354 805 617 148 88 58 96 38 190 154 10 395 233 80 7 0 0 52 397 597 446 173 386
0 0 0 0 0 0 0 0 0 0 0 0 0 0 0 0 0 0 0 0 0 0 0 0 0 65 1461 1510 680 602 106 56 86 51 238 241 37 524 463 50 0 0 46 209 243 619 393 604 165
0 0 0 0 0 0 0 0 0 0 0 0 0 0 0 0 0 0 0 0 0 0 0 0 0 361 1506 1429 946 978 750 166 154 120 333 303 89 567 340 11 0 3 193 522 662 326 236 227 199
0 0 0 0 0 0 0 0 0 0 0 0 0 0 0 0 0 0 0 0 61 0 0 0 0 0 883 1320 1193 892 719 798 113 184 514 509 335 469 227 36 0 144 301 435 479 403 175 309 69
0 0 0 0 0 0 0 0 0 0 0 0 0 0 0 0 0 0 0 0 0 23 22 0 0 0 37 764 559 846 516 689 675 571 897 612 388 401 185 41 430 439 509 720 359 350 439 207 34
0 0 0 0 0 0 0 0 0 7 0 0 0 0 0 0 0 0 0 0 0 0 39 170 21 0 0 696 985 367 0 369 732 618 504 572 475 478 257 63 812 653 533 612 760 576 490 154 7
0 0 0 0 0 0 0 0 0 3 0 0 0 0 0 0 0 0 0 0 0 0 0 40 46 54 0 283 1273 1002 555 567 666 633 600 663 544 494 111 45 860 512 733 949 745 573 526 34 0
0 0 0 0 0 0 0 0 0 0 0 0 0 0 0 0 0 0 0 0 0 0 0 0 126 21 0 20 1136 1198 1054 905 797 555 531 743 527 383 80 59 1037 453 702 953 876 393 360 34 2
0 0 0 0 0 10 0 0 0 20 0 0 0 0 0 0 0 0 0 0 0 0 0 0 12 66 0 368 1075 1309 1117 918 910 328 465 462 355 117 30 48 1180 812 632 490 46 0 0 0 0
0 0 0 0 0 0 0 0 29 15 0 0 0 0 0 0 0 0 0 0 0 0 0 0 0 50 0 8 1249 1322 1148 1155 905 535 371 414 268 94 42 184 901 327 91 0 0 0 0 0 0
0 0 0 0 0 0 0 13 68 16 0 0 0 0 0 0 0 0 0 0 0 0 0 0 0 0 0 0 669 1371 1356 1373 1073 576 486 392 279 127 63 567 297 17 0 0 0 0 0 0 0
0 15 5 0 0 0 0 27 55 0 0 0 0 0 0 0 0 0 0 0 0 0 0 0 0 0 0 0 680 1252 1283 1341 1124 551 441 374 244 138 185 146 3 0 0 0 0 0 0 0 0
15 2 13 3 0 0 0 0 5 2 0 0 0 0 0 0 0 0 0 0 0 0 9 10 0 0 0 0 771 1480 1327 1237 1165 633 496 565 273 273 95 0 0 0 0 0 0 0 0 0 0
3 8 23 8 9 1 0 0 30 6 0 0 0 0 0 0 0 2 0 0 0 0 44 49 15 4 59 37 928 1720 1485 1324 1025 591 580 522 280 108 0 0 0 0 0 0 0 0 0 0 0
3 1 2 2 0 1 2 0 34 14 0 0 0 0 0 0 1 2 0 0 2 0 76 515 13 207 366 763 1337 1675 1715 1371 977 565 568 417 64 0 0 0 0 0 0 0 0 0 0 0 0

GFSSGP_con_sbcape_210.txt.gz
CAPE
0 0 0 0 0 0 0 0 0 0 0 0 777 1377 1377 1379 1051 671 1243 1758 1998 1953 1899 2230 2111 1992 1755 1628 1351 1250 1332 1225 1282 1349 1483 1642 1580 1402 1397 1413 1395 1224 684 316 125 0 0 0 0
0 0 0 0 0 0 0 0 0 0 0 0 123 38 85 1041 986 1215 1681 1958 1847 1771 1621 2052 2219 1946 1809 1649 1437 1274 1323 1214 1386 1408 1501 1631 1669 1491 1192 1147 1225 816 391 218 62 0 0 0 0
0 0 0 0 0 0 0 0 0 0 0 0 0 3 0 0 215 705 1198 1663 1657 1514 1394 1947 2290 1993 1797 1653 1457 1328 1343 1221 1387 1429 1533 1682 1721 1647 1287 1093 1095 764 375 217 0 0 0 0 0
0 0 0 0 0 0 0 0 0 0 0 0 0 0 0 0 0 529 1720 1571 1296 1207 1327 2218 2342 2079 1879 1650 1445 1415 1422 1285 1314 1472 1549 1678 1581 1571 1318 1137 1113 945 371 86 0 0 0 0 0
0 0 0 0 0 0 0 0 0 0 0 0 0 0 0 0 0 751 1959 1357 1022 1319 1644 2007 2337 2236 2158 1786 1457 1474 1510 1303 1258 1528 1584 1657 1613 1432 1275 1185 1168 969 578 164 0 0 0 0 0
0 0 0 0 0 0 0 0 0 0 0 0 0 0 0 0 0 0 1441 1818 1152 1457 1605 1776 2295 2339 2183 1976 1605 1428 1492 1349 1322 1505 1590 1659 1533 1368 1250 1211 1280 1143 912 463 65 0 0 0 0
0 0 0 0 0 0 0 0 0 0 0 0 0 0 0 0 0 0 0 1840 1431 1482 1315 1474 1746 2136 2217 1958 1641 1451 1405 1326 1324 1410 1469 1536 1422 1275 1234 1267 1279 1167 868 392 64 0 0 0 0
0 0 0 0 0 0 0 0 0 0 0 0 0 0 0 0 0 0 0 1432 1524 1479 1290 1263 1580 1842 1784 1713 1853 1624 1488 1389 1396 1482 1529 1533 1368 1208 1240 1112 1166 1158 846 468 127 0 0 0 0
0 0 0 0 0 0 0 0 0 0 0 0 0 0 0 0 0 0 0 0 934 1330 1292 1180 1313 1511 1479 1435 1602 1739 1489 1469 1551 1570 1605 1176 738 874 890 849 1061 1136 884 532 231 46 0 0 0
0 0 0 0 0 0 0 0 0 0 0 0 0 0 0 0 0 0 0 0 381 1210 1115 941 1092 1196 1142 1170 1126 1174 1157 1151 1192 1133 1123 570 369 441 665 661 1019 1146 951 590 303 129 41 21 0
0 0 0 0 0 0 0 0 0 0 0 0 0 0 0 0 0 0 0 0 0 35 1330 1225 895 883 1010 1080 1076 747 990 1029 919 958 813 348 267 310 457 299 568 563 670 107 55 11 0 0 0
0 0 0 0 0 0 0 0 0 0 0 0 0 0 0 0 0 0 0 0 0 0 0 1083 816 622 666 930 958 806 896 862 723 718 565 176 101 117 196 95 92 202 68 27 0 0 0 0 0
0 0 0 0 0 0 0 0 0 0 0 0 0 0 0 0 0 0 0 0 0 0 0 477 404 274 212 725 917 885 914 866 669 441 480 122 2 39 15 71 69 87 0 0 0 0 0 0 0
0 0 0 0 0 0 0 0 0 0 0 0 0 0 0 0 0 0 0 0 0 0 0 0 222 176 42 134 844 769 819 807 623 394 392 154 23 0 0 77 60 24 0 0 0 0 0 0 0
0 0 0 0 0 0 0 0 0 0 0 0 0 0 0 0 0 0 0 0 0 0 0 0 195 161 89 29 845 716 724 765 532 365 272 283 26 14 0 62 73 32 0 0 0 0 0 0 78
0 0 0 0 0 0 0 0 0 0 0 0 0 0 0 0 0 0 0 0 0 0 0 0 374 916 296 172 746 589 400 579 431 333 218 286 108 0 15 38 130 61 0 0 0 0 217 181 139
0 0 0 0 0 0 0 0 0 0 0 0 0 0 0 0 0 0 0 0 0 0 0 0 17 1220 990 460 526 393 460 151 233 104 100 255 200 57 67 132 94 0 0 0 50 287 275 208 89
0 0 0 0 0 0 0 0 0 0 0 0 0 0 0 0 0 0 0 0 0 0 0 0 0 0 538 1095 652 548 170 113 70 43 70 175 206 113 133 177 83 0 0 84 88 283 114 154 80
0 0 0 0 0 0 0 0 0 0 0 0 0 0 0 0 0 0 0 0 0 0 0 0 0 0 438 1043 929 745 727 338 142 77 158 173 255 142 227 166 38 0 0 97 265 96 100 165 0
0 0 0 0 0 0 0 0 0 0 0 0 0 0 0 0 0 0 0 0 0 0 0 0 0 0 117 792 991 928 722 643 391 237 250 273 299 172 349 170 26 0 33 192 258 173 125 17 0
0 0 0 0 0 0 0 0 0 0 0 0 0 0 0 0 0 0 0 0 0 0 0 0 0 0 0 340 616 182 0 18 328 468 442 562 437 313 391 106 69 80 169 357 213 195 151 14 0
0 0 0 0 0 0 0 0 0 0 0 0 0 0 0 0 0 0 0 0 0 0 0 0 0 0 0 1 427 314 60 40 65 248 332 496 571 459 418 132 160 201 244 356 326 194 175 0 0
0 0 0 0 0 0 0 0 0 0 0 0 0 0 0 0 0 0 0 0 0 0 0 0 0 0 0 0 66 517 215 3 0 2 10 541 618 346 296 71 393 353 405 489 406 228 68 4 0
0 0 0 0 0 0 0 0 0 0 0 0 0 0 0 0 0 0 0 0 0 0 0 0 0 0 0 0 0 526 582 356 285 249 374 557 180 19 26 82 383 429 555 488 150 19 0 0 0
0 0 0 0 0 0 0 0 0 8 0 0 0 0 0 0 0 0 0 0 0 0 0 0 0 0 0 0 0 92 646 789 717 575 593 552 12 9 0 10 224 266 218 0 0 0 0 0 0
0 0 9 11 0 0 0 2 16 0 0 0 0 0 0 0 0 0 0 0 0 0 0 0 0 0 0 0 0 0 626 702 832 631 465 356 376 135 102 6 158 41 0 0 0 0 0 0 0
0 0 0 0 0 0 0 0 0 0 0 0 0 0 0 0 0 0 0 0 0 0 0 0 0 0 0 0 0 0 796 804 970 652 488 441 317 300 181 147 6 0 0 0 0 0 0 0 0
2 0 2 6 0 0 0 0 0 0 0 0 0 0 0 0 0 0 0 0 0 0 0 0 0 0 0 0 0 0 956 1096 1138 864 622 495 362 223 196 2 0 0 0 0 0 0 0 0 0
0 0 1 0 0 0 0 0 0 0 0 0 0 0 0 0 0 0 0 0 2 1 0 25 0 0 0 0 0 0 337 1047 1152 968 725 539 429 263 41 0 0 0 0 0 0 0 0 0 0
1 0 0 1 0 0 0 0 0 0 0 0 0 0 0 0 0 0 0 1 0 1 0 57 46 0 0 1 0 0 469 1039 1067 988 737 521 420 253 0 0 0 0 0 0 0 0 0 0 0

GFSSGP_con_sbcape_216.txt.gz
CAPE
0 0 0 0 0 0 0 0 0 0 0 0 26 873 970 775 217 236 1413 1980 2017 1845 1924 2098 2036 1771 1518 1553 1611 1775 1793 1792 1681 1625 1593 1574 1596 1656 1762 1840 1801 1464 1007 317 208 1 0 0 0
0 0 0 0 0 0 0 0 0 0 0 0 0 0 481 330 978 1571 1484 1952 2001 1820 1682 1762 2073 1780 1265 1226 1410 1661 1694 1717 1645 1552 1539 1499 1499 1606 1644 1761 1714 1304 900 256 91 0 0 0 0
0 0 0 0 0 0 0 0 0 0 0 0 0 0 0 40 728 1314 1914 1732 1772 1672 1557 1663 2098 1883 1415 1080 1055 1438 1598 1594 1563 1480 1384 1366 1427 1464 1472 1574 1596 1034 536 239 26 0 0 0 0
0 0 0 0 0 0 0 0 0 0 0 0 0 0 0 0 26 1045 2012 1750 1345 1452 1536 2059 2186 2025 1708 1161 1033 1098 1272 1524 1545 1409 1326 1335 1371 1335 1359 1438 1355 1127 496 243 55 0 0 0 0
0 0 0 0 0 0 0 0 0 0 0 0 0 0 0 0 260 1666 1786 1621 1230 1138 1517 2051 2206 2086 1826 1296 1163 1107 1318 1513 1559 1528 1436 1409 1345 1208 1206 1251 1227 943 770 496 196 14 0 0 0
0 0 0 0 0 0 0 0 0 0 0 0 0 0 0 0 0 1024 1530 1377 1268 1108 1689 1950 2159 2139 1951 1663 1464 1441 1426 1566 1595 1673 1594 1636 1452 1278 1194 1200 1142 1072 975 752 416 43 0 0 0
0 0 0 0 0 0 0 0 0 0 0 0 0 0 0 0 0 0 1284 932 1277 1335 1541 1773 1881 2010 1988 1819 1606 1597 1501 1510 1603 1596 1655 1659 1610 1430 1329 1256 1214 1177 1096 913 503 107 0 0 0
0 0 0 0 0 0 0 0 0 0 0 0 0 0 0 0 0 616 1008 893 1101 1336 1350 1366 1739 1795 1638 1599 1816 1657 1556 1439 1583 1609 1630 1664 1614 1457 1392 1155 1215 1247 1137 928 529 187 40 0 0
0 0 0 0 0 0 0 0 0 0 0 0 0 0 0 0 0 255 423 826 1203 1189 1044 1096 1346 1709 1822 1456 1398 1659 1408 1363 1522 1589 1612 1438 1078 1014 1015 1026 923 1210 1120 974 684 326 100 37 2
0 0 0 0 0 0 0 0 0 0 0 0 0 0 0 0 0 0 0 0 587 1215 1159 1019 1187 1426 1619 1319 1335 1220 1052 1028 1148 1168 1177 1085 758 568 703 837 966 1063 1158 1084 840 534 242 148 0
0 0 0 0 0 0 0 0 0 0 0 0 0 0 0 0 0 0 0 0 0 116 635 1026 1065 1226 1313 1182 1163 1171 946 1129 1091 948 917 960 553 506 779 505 662 626 899 575 370 181 12 0 0
0 0 0 0 0 0 0 0 0 0 0 0 0 0 0 0 0 0 0 0 0 0 141 809 916 1081 1120 1069 985 1041 857 785 743 678 874 660 322 301 417 366 267 313 292 313 154 4 0 0 0
0 0 0 0 0 0 0 0 0 0 0 0 0 0 0 0 0 0 0 0 0 0 0 24 644 891 1060 1000 1011 884 911 775 738 692 699 577 290 266 255 276 140 154 153 128 75 10 0 0 0
0 0 0 0 0 0 0 0 0 0 0 0 0 0 0 0 0 0 0 0 0 0 0 0 0 506 769 985 994 996 913 827 693 652 705 519 333 206 171 163 129 62 84 73 22 0 0 0 0
0 0 0 0 0 0 0 0 0 0 0 0 0 0 0 0 0 0 0 0 0 0 0 0 0 4 416 783 882 1039 967 933 783 750 669 501 378 71 121 107 115 98 27 26 0 0 0 0 0
0 0 0 0 0 0 0 0 0 0 0 0 0 0 0 0 0 0 0 0 0 0 0 0 0 0 68 273 468 1059 1025 986 886 728 690 536 452 91 6 38 60 97 25 9 0 0 0 0 0
0 0 0 0 0 0 0 0 0 0 0 0 0 0 0 0 0 0 0 0 0 0 0 0 0 0 0 59 85 507 946 1096 1071 958 864 716 729 193 20 12 39 86 45 0 1 0 0 0 28
0 0 0 0 0 0 0 0 0 0 0 0 0 0 0 0 0 0 0 0 0 0 0 0 0 0 0 0 83 129 345 932 1012 1003 967 728 726 534 101 19 24 55 65 6 0 0 0 13 51
0 0 0 0 0 0 0 0 0 0 0 0 0 0 0 0 0 0 0 0 0 0 0 0 0 0 0 0 154 260 372 612 788 814 927 760 625 692 197 126 12 27 72 84 12 24 69 129 71
0 0 0 0 0 0 0 0 0 0 0 0 0 0 0 0 0 0 0 0 0 0 0 0 0 0 0 0 0 93 279 411 570 662 669 750 640 620 508 270 139 96 82 47 39 86 63 66 0
0 0 0 0 0 0 0 0 0 0 0 0 0 0 0 0 0 0 0 0 0 0 0 0 0 0 0 0 0 0 0 85 277 302 507 502 624 611 540 354 387 254 135 80 26 69 120 55 0
0 0 0 0 0 0 0 0 0 0 0 0 0 0 0 0 0 0 0 0 0 0 0 0 0 0 0 0 0 0 0 0 193 594 506 525 623 676 560 516 392 327 126 86 11 101 122 13 16
0 0 0 0 0 0 0 0 0 0 0 0 0 0 0 0 0 0 0 0 0 0 0 0 0 0 0 0 0 0 0 0 0 67 521 559 626 684 636 558 470 406 128 87 81 151 38 7 31
0 0 0 0 0 0 0 0 0 0 0 0 0 0 0 0 0 0 0 0 0 0 0 0 0 0 0 0 0 0 0 0 0 0 14 508 726 765 798 748 652 502 280 146 85 171 133 26 0
0 0 0 0 0 0 0 0 0 0 0 0 0 0 0 0 0 0 0 0 0 0 0 0 0 0 0 1 0 0 0 0 0 0 0 34 357 635 860 928 692 494 343 208 225 142 179 19 0
0 0 0 0 0 0 0 0 0 0 0 0 0 0 0 0 0 0 0 0 0 0 0 0 0 0 0 2 2 1 0 0 0 0 0 0 111 380 855 960 786 678 445 291 66 27 4 0 0
0 0 0 0 0 0 0 0 0 0 0 0 0 0 0 0 0 0 0 0 0 0 0 0 0 0 0 0 2 2 0 0 0 0 0 29 60 234 777 840 820 671 384 63 2 0 0 0 0
0 0 0 0 0 0 0 0 0 0 0 0 0 0 0 0 0 0 0 0 0 0 1 0 1 0 1 3 7 3 1 0 0 0 0 4 213 357 710 775 792 592 355 0 1 1 0 0 0
0 0 0 0 0 7 0 0 0 0 0 0 0 0 0 0 0 0 0 0 0 1 0 0 0 7 7 4 4 2 4 0 0 0 0 0 396 668 600 593 589 577 106 1 0 0 0 0 0
0 0 0 1 0 0 1 0 0 0 0 0 0 0 0 0 0 0 0 0 0 1 0 3 0 8 7 9 3 4 4 1 2 0 2 144 830 835 606 514 430 400 0 0 0 0 0 0 0

GFSSGP_con_sbcape_219.txt.gz
CAPE
0 0 0 0 0 0 0 0 0 0 0 0 0 1072 1067 794 559 939 2294 2033 2076 1712 1894 1670 1790 1691 1888 1963 2008 2018 1964 1944 1829 1677 1409 1354 1430 1624 1943 2018 1623 1308 652 430 187 3 0 0 0
0 0 0 0 0 0 0 0 0 0 0 0 0 13 872 976 1316 1840 1902 2421 2122 1713 1851 1417 1790 1691 1575 1662 1896 1871 1883 1893 1872 1737 1592 1502 1635 1801 1930 1910 1756 1376 847 355 138 0 0 6 32
0 0 0 0 0 0 0 0 0 0 0 0 0 0 1 23 26 1187 2553 2350 2387 1972 1641 1667 1904 1667 1549 1409 1566 1812 1853 1778 1783 1741 1666 1644 1647 1755 1796 1825 1851 1481 904 359 101 0 18 0 18
0 0 0 0 0 0 0 0 0 0 0 0 0 0 0 0 145 2360 2498 2163 2323 2275 1579 1906 1955 1724 1573 1223 1392 1630 1673 1746 1721 1745 1645 1629 1629 1582 1569 1692 1817 1629 873 372 192 97 41 0 0
0 0 0 0 0 0 0 0 0 0 0 0 0 0 0 0 117 2298 2409 2116 1779 1692 1461 1800 2103 1935 1637 1208 1217 1469 1656 1713 1655 1606 1509 1533 1508 1429 1452 1550 1548 1324 1077 686 334 170 42 0 0
0 0 0 0 0 0 0 0 0 0 0 0 0 0 0 0 0 0 2129 2110 1655 1610 1903 2060 2060 2106 1807 1588 1441 1573 1679 1679 1661 1563 1483 1464 1431 1353 1370 1399 1356 1221 1074 901 512 156 22 0 0
0 0 0 0 0 0 0 0 0 0 0 0 0 0 0 0 0 0 2008 2008 1957 1694 1852 2139 1966 1948 1925 1788 1625 1546 1588 1594 1650 1622 1508 1541 1449 1306 1268 1245 1206 1114 1044 887 673 186 13 0 0
0 0 0 0 0 0 0 0 0 0 0 0 0 0 0 0 17 894 1938 1930 2004 2014 1754 1892 2106 1774 1843 1512 1629 1629 1505 1594 1640 1697 1672 1647 1555 1500 1394 1144 1097 1109 1012 858 748 310 57 5 0
0 0 0 0 0 0 0 0 0 0 0 0 0 0 0 0 0 457 490 1413 2054 2061 2168 2003 1910 1806 1751 1653 1632 1724 1430 1340 1502 1502 1673 1403 604 749 743 700 983 1184 1095 1011 858 438 161 54 28
0 0 0 0 0 0 0 0 0 0 0 0 0 0 0 0 0 0 0 0 9 425 1792 2286 2293 2172 1935 1687 1718 1734 1457 1142 643 554 689 779 510 687 480 669 1130 1107 1238 1188 1009 692 358 109 0
0 0 0 0 0 0 0 0 0 0 0 0 0 0 0 0 0 0 0 0 0 0 314 1139 2371 2633 2306 2110 1903 1773 1615 1444 1426 1130 1010 770 562 675 621 411 624 640 821 288 271 216 102 0 0
0 0 0 0 0 0 0 0 0 0 0 0 0 0 0 0 0 0 0 0 0 0 0 71 1607 2363 2650 2353 2018 2020 1673 1367 1333 1372 1185 985 843 570 481 435 354 589 391 276 234 82 87 61 0
0 0 0 0 0 0 0 0 0 0 0 0 0 0 0 0 0 0 0 0 0 0 0 0 0 1487 2258 1914 2059 2106 1852 1378 1260 1222 1182 1071 982 613 477 467 445 352 326 270 136 87 117 42 1
0 0 0 0 0 0 0 0 0 0 0 0 0 0 0 0 0 0 0 0 0 0 0 0 0 0 1339 1869 2083 1979 1943 1726 1621 1396 1307 1166 1197 967 556 533 483 415 370 263 177 74 42 34 8
0 0 0 0 0 0 0 0 0 0 0 0 0 0 0 0 0 0 0 0 0 0 0 0 0 0 0 705 1522 1677 1811 1820 1806 1631 1585 1377 1256 1230 817 610 502 397 410 363 264 171 113 69 50
0 0 0 0 0 0 0 0 0 0 0 0 0 0 0 0 0 0 0 0 0 0 0 0 0 0 0 0 619 1283 1402 1779 1933 1917 1752 1610 1378 1147 813 848 558 339 409 323 246 177 73 9 45
0 0 0 0 0 0 0 0 0 0 0 0 0 0 0 0 0 0 0 0 0 0 0 0 0 0 0 0 0 317 1149 1508 1565 1908 1844 1719 1465 1041 752 1135 812 545 255 269 246 239 182 109 377
0 0 0 0 0 0 0 0 0 0 0 0 0 0 0 0 0 0 0 0 0 0 0 0 0 0 0 0 0 102 564 1025 1322 1815 1694 1871 1509 1182 1183 1219 1079 865 465 227 329 420 353 348 460
0 0 0 0 0 0 0 0 0 0 0 0 0 0 0 0 0 0 0 0 0 0 0 0 0 0 0 0 0 0 167 411 1021 1158 1290 1444 1656 1740 1415 1391 1299 1110 760 546 310 533 591 541 614
0 0 0 0 0 0 0 0 0 0 0 0 0 0 0 0 0 0 0 0 0 0 0 0 0 0 0 0 0 0 0 0 202 1078 1447 1506 1569 1782 1773 1698 1527 1365 987 807 581 424 461 574 783
0 0 0 0 0 0 0 0 0 0 0 0 0 0 0 0 0 0 0 0 0 0 0 0 0 0 0 0 0 0 0 0 0 57 315 1447 1602 1790 1705 1907 1700 1561 1355 1039 920 733 683 498 779
0 0 0 0 0 0 0 0 0 0 0 0 0 0 0 0 0 0 0 0 0 0 0 0 0 1 0 1 0 2 2 0 0 2 38 467 1224 1597 1617 1790 1840 1856 1537 1523 1059 488 683 1203 1014
0 0 0 0 0 0 0 0 0 0 25 0 0 0 0 0 0 0 0 0 0 0 0 0 0 3 6 9 9 4 4 0 0 0 21 297 884 1264 1473 1727 1840 1843 1705 1515 1411 912 560 1170 881
0 0 0 0 0 0 0 0 0 1 17 2 0 0 0 0 0 0 0 0 0 0 0 0 2 5 9 17 23 12 2 11 8 1 0 2 66 527 1383 1624 1856 1998 2007 1603 1413 1325 1041 789 791
0 0 0 0 0 0 0 0 0 0 8 0 0 0 0 0 0 0 0 0 0 0 0 0 4 7 12 11 17 23 18 5 11 12 0 0 15 218 1207 1681 1913 1849 2049 1903 1474 1275 624 543 342
0 0 209 14 2 5 0 0 69 26 17 0 0 0 0 0 0 0 0 0 0 0 0 2 8 8 8 8 6 10 19 4 11 8 4 1 0 54 874 1346 1776 1895 1764 1820 1552 1432 1599 451 309
0 0 0 11 0 2 0 0 0 0 4 0 0 0 0 0 0 0 0 0 0 0 0 3 4 4 9 10 9 19 10 16 2 10 19 7 4 11 210 1005 1419 1825 1692 1687 1660 1550 1247 886 94
0 0 2 9 36 3 0 0 4 0 0 0 0 0 0 0 0 0 0 0 0 0 3 6 4 5 6 8 7 13 6 25 25 4 8 12 5 4 165 541 1339 1528 1521 1595 1655 1473 868 112 1
0 0 0 3 8 58 34 1 0 20 4 0 0 0 0 0 0 2 0 0 0 0 2 6 7 4 9 11 16 12 13 10 17 4 4 19 11 6 212 496 811 1283 1433 1264 955 456 56 2 1
0 0 3 41 25 33 25 14 0 53 3 0 0 0 0 0 0 0 0 0 0 0 4 2 8 10 4 9 9 14 14 15 13 12 3 11 30 33 33 505 790 1253 912 492 374 12 3 1 1

GFSSGP_con_sbcape_222.txt.gz
CAPE
0 0 0 0 0 0 0 0 0 0 0 0 0 1282 1305 1540 1567 2119 2714 2463 2337 2177 2081 1686 1956 2243 2207 2380 2377 2187 1815 1479 1308 1518 1582 1499 1560 1739 1832 2168 1823 1669 1170 623 271 52 0 0 17
0 0 0 0 0 0 0 0 0 0 0 0 0 883 1455 1621 1656 2177 2795 2706 2229 2174 1993 1298 1811 2115 2170 2215 2232 2162 2024 1911 1785 1691 1560 1527 1735 1757 2062 2045 1702 1305 745 556 236 54 12 12 44
0 0 0 0 0 0 0 0 0 0 0 0 54 141 666 592 1264 2318 2977 2871 2153 2079 1721 1639 1868 1989 2016 1931 2081 2139 2171 2138 2047 1849 1691 1709 1831 1941 2057 1950 1767 1304 709 485 142 27 22 31 59
0 0 0 0 0 0 0 0 0 0 0 0 0 13 100 0 1452 2728 2823 2796 2437 1920 1673 1803 1904 1856 1937 1821 1959 2079 2095 2143 2147 2056 1928 1904 1970 1984 1977 1968 1983 1675 976 457 144 31 0 0 13
0 0 0 0 0 0 0 0 0 0 0 0 0 0 0 0 1706 2484 2631 2427 2553 2447 1998 1515 1984 1772 1589 1570 1637 1912 2001 1971 2012 2040 1972 1948 1963 1889 1812 1887 1736 1509 978 536 198 47 18 0 0
0 0 0 0 0 0 0 0 0 0 0 0 0 0 0 0 0 807 2099 2162 1857 1882 1739 1959 1863 1772 1700 1549 1580 1803 1821 1833 1845 1899 1861 1848 1791 1681 1621 1637 1484 1298 1143 798 322 170 68 18 0
0 0 0 0 0 0 0 0 0 0 0 0 0 0 0 0 0 405 2235 2433 2232 2132 1986 2235 1748 1803 1706 1597 1547 1642 1799 1763 1746 1726 1664 1690 1686 1566 1516 1573 1499 1310 1096 854 529 302 127 29 11
0 0 0 0 0 0 0 0 0 0 0 0 0 0 0 0 0 0 36 600 1495 2062 2127 2379 2316 2027 1747 1391 1673 1536 1604 1693 1815 1774 1677 1639 1610 1441 1405 1347 1257 1300 1057 806 605 400 205 120 51
0 0 0 0 0 0 0 0 0 0 0 0 0 0 0 0 0 0 0 0 1 243 762 1496 2084 2228 2181 1728 1979 1673 1466 1505 1551 1543 1681 1350 179 183 306 504 951 1316 1177 1003 921 697 333 166 118
0 0 0 0 0 0 0 0 0 0 0 0 0 0 0 0 0 0 0 0 0 0 0 5 682 1701 2477 2217 2015 2228 1606 1164 568 310 339 617 98 97 178 480 1108 1383 1292 1288 1177 994 503 93 0
0 0 0 0 0 0 0 0 0 0 0 0 0 0 0 0 0 0 0 0 0 0 0 0 162 1513 2424 2653 2754 2476 2172 1913 1594 1047 730 695 235 234 379 296 580 746 799 337 447 220 71 0 0
0 0 0 0 0 0 0 0 0 0 0 0 0 0 0 0 0 0 0 0 0 0 0 0 0 655 1911 2382 2915 2930 2760 2405 2139 1912 1699 1363 1030 732 658 372 147 246 200 245 131 27 0 1 0
0 0 0 0 0 0 0 0 0 0 0 0 0 0 0 0 0 0 0 0 0 0 0 0 0 0 375 1831 1558 1692 2065 2050 2276 2216 1983 1800 1338 1065 872 666 425 310 220 194 211 150 21 64 14
0 0 0 0 0 0 0 0 0 0 0 0 0 0 0 0 0 0 0 0 0 0 0 0 0 0 0 577 1639 1505 1273 1219 1642 1878 2133 2056 1922 1539 1258 1008 702 614 384 229 212 201 116 83 11
0 0 0 0 0 0 0 0 0 0 0 0 0 0 0 0 0 0 0 0 0 0 0 0 0 0 0 0 219 1029 1047 873 985 1178 1945 2256 2286 2213 2009 1517 1058 777 740 506 327 338 336 251 28
0 0 0 0 0 0 0 1 0 0 0 0 0 0 0 0 0 0 0 0 0 0 0 0 0 0 0 0 0 0 686 1059 1131 1140 1373 1860 2149 2432 2190 1896 1510 1163 796 711 555 375 392 363 170
0 0 0 0 0 0 0 0 0 0 0 0 0 0 0 0 0 0 0 0 0 0 0 0 0 0 0 0 0 17 35 865 1380 1338 1290 1489 1711 1885 2242 1951 1728 1575 1123 681 563 429 473 489 416
0 0 0 0 0 0 0 0 0 0 0 0 0 0 0 0 0 0 0 0 0 0 0 0 0 0 0 0 0 13 47 71 372 1103 1435 1511 1721 1619 1960 1936 1790 1895 1397 1027 704 978 579 684 516
0 0 0 0 0 0 0 0 2 0 0 0 0 0 0 0 0 0 0 0 0 0 0 0 0 0 0 0 0 7 43 127 142 196 1052 1587 2001 1914 1934 1859 1924 2034 1958 1570 1211 917 937 595 780
0 0 0 0 0 0 0 0 0 0 0 0 0 0 0 0 0 0 0 0 0 0 0 0 0 3 2 0 1 1 14 18 45 124 509 1317 1665 2092 2143 2249 1984 1885 1886 1996 1636 1320 912 759 975
0 0 0 0 0 0 0 0 0 0 0 0 0 0 0 0 0 0 0 0 0 0 0 0 3 8 8 13 5 3 9 20 23 31 80 192 971 1926 2077 2282 2396 2318 2219 1768 2313 1660 1419 884 1043
0 0 0 0 0 1 0 0 34 61 93 105 34 12 0 0 0 0 0 0 0 0 0 1 5 12 13 23 17 19 36 37 34 44 40 123 282 684 1594 2106 2293 2625 2014 2257 2224 2288 2148 2073 901
0 0 0 0 0 0 0 0 144 31 139 283 146 48 4 0 0 0 0 0 0 0 0 2 7 17 23 23 20 27 30 23 36 51 117 205 236 276 807 1555 2144 2664 2347 2579 2538 2313 2515 1789 1340
0 0 0 0 0 9 2 7 162 174 143 170 149 49 0 0 0 0 0 0 3 0 0 3 8 19 24 14 12 27 35 25 16 12 66 98 108 132 707 889 1974 2590 2671 2523 2302 2648 2561 2148 1829
0 0 0 0 22 23 0 13 175 95 147 119 58 4 4 0 1 0 0 3 2 0 0 6 13 18 21 22 16 16 25 30 39 24 21 103 94 113 340 1356 2100 1897 2553 2705 2915 2701 2493 2328 2040
0 0 211 1 61 107 34 75 211 4 132 117 10 9 6 0 0 0 1 7 1 0 0 7 14 16 17 16 19 19 19 15 24 30 23 57 102 105 667 666 1332 1819 2047 2483 2855 2320 2087 2138 2125
1 6 0 43 35 110 79 21 35 40 78 46 16 10 11 3 6 3 2 12 14 3 0 7 12 16 21 20 21 18 24 27 29 42 53 25 29 112 153 315 621 1236 1551 2192 2537 2066 2369 2028 2113
0 0 32 78 41 19 73 40 89 61 95 70 23 18 11 4 4 5 10 20 22 7 2 9 11 12 10 11 18 13 12 24 24 25 33 31 26 26 179 252 460 917 1530 1716 2293 2310 2285 2164 1992
0 5 5 12 24 123 82 116 49 40 47 78 36 17 6 7 5 7 11 22 26 9 2 6 13 8 10 13 19 23 26 7 15 24 20 23 32 27 111 140 353 616 1040 1440 2108 2263 1460 1837 1134
0 0 1 28 54 138 127 84 78 73 74 54 32 17 10 5 4 11 19 27 25 10 3 8 13 13 11 12 22 13 26 34 29 13 12 22 29 16 41 62 261 668 873 1504 1652 1582 1555 1523 688